Location: Rodanthe
(35.5920°N, 75.4670°W)
Time: 23:59:59
(UTC-04:00)

ISS - Pass Details

Date: 29 April 2018
Orbit: 402 x 407 km, 51.6° (Epoch: 24 May)

Event Time Altitude Azimuth Distance (km) Brightness Sun altitude
Rises 13:35:35 0° 310° (NW) 2,324 0.0 67.5°
Reaches altitude 10° 13:37:40 10° 309° (NW) 1,463 -0.9 67.3°
Maximum altitude 13:40:57 78° 223° (SW) 418 -1.5 67.0°
Drops below altitude 10° 13:44:13 10° 137° (SE) 1,458 -0.8 66.7°
Sets 13:46:13 0° 136° (SE) 2,286 0.1 66.5°
